Location: Evansville
(37.9747°N, 87.5558°W)
Time: 18:58:01
(UTC-06:00)

ARIANE 6 FM1 Upper Stage - Pass Details

Date: 20 December 2025
Orbit: 522 x 610 km, 62.0° (Epoch: 13 January)

Event Time Altitude Azimuth Distance (km) Brightness Sun altitude
Exits shadow 05:26:42 15° 353° (N) 1,478 4.6 -18.2°
Drops below altitude 10° 05:27:47 10° 6° (N) 1,773 5.1 -17.9°
Sets 05:30:23 0° 22° (NNE) 2,659 6.2 -17.5°
